Hourly Data Report for October 14, 2015

All times are specified in Local Standard Time (LST). Add 1 hour to adjust for Daylight Saving Time where and when it is observed.

FREDERICTON
NEW BRUNSWICK

45°52'08.000" N
66°32'14.000" W
20.70 m
8101505
71700
YFC

Download Data

Hourly Data (October 2015)
Hourly Data Report for October 14, 2015
Temp Definition
°C
Dew Point Temp Definition
°C
Rel Hum Definition
%
Wind Dir Definition
10's deg

Wind Spd Definition
km/h
Visibility Definition
km
Stn Press Definition
kPa
Hmdx Definition


Wind Chill Definition


Weather Definition


TIME
00:00 Legend Double Dagger 15.4 15.1 98 18 17 12.9 99.44     LegendNANA
01:00 Legend Double Dagger 15.6 15.0 96 19 13 16.1 99.38     LegendNANA
02:00 Legend Double Dagger 15.4 14.6 95 18 13 16.1 99.31     LegendNANA
03:00 Legend Double Dagger 15.4 14.6 95 18 15 16.1 99.24     LegendNANA
04:00 Legend Double Dagger 15.3 14.5 95 20 17 12.9 99.23     LegendNANA
05:00 Legend Double Dagger 15.4 14.6 95 20 13 14.5 99.25     LegendNANA
06:00 Legend Double Dagger 15.2 14.3 94 20 15 16.1 99.29     LegendNANA
07:00 Legend Double Dagger 13.7 11.1 84 24 15 16.1 99.40     LegendNANA
08:00 Legend Double Dagger 13.4 10.8 84 22 17 16.1 99.46     LegendNANA
09:00 Legend Double Dagger 15.2 11.4 78 22 21 16.1 99.51     LegendNANA
10:00 Legend Double Dagger 16.9 10.9 67 22 26 16.1 99.54     LegendNANA
11:00 Legend Double Dagger 18.4 11.0 62 22 24 16.1 99.53     LegendNANA
12:00 Legend Double Dagger 18.7 9.9 56 24 30 16.1 99.54     LegendNANA
13:00 Legend Double Dagger 19.2 8.6 50 24 26 16.1 99.55     LegendNANA
14:00 Legend Double Dagger 19.0 8.6 51 23 24 16.1 99.54     LegendNANA
15:00 Legend Double Dagger 18.7 7.9 49 24 28 16.1 99.58     LegendNANA
16:00 Legend Double Dagger 18.7 9.6 55 23 26 16.1 99.59     LegendNANA
17:00 Legend Double Dagger 16.7 9.9 64 24 17 16.1 99.68     LegendNANA
18:00 Legend Double Dagger 14.1 10.0 76 24 17 16.1 99.72     LegendNANA
19:00 Legend Double Dagger 13.1 10.3 83 23 11 16.1 99.81     LegendNANA
20:00 Legend Double Dagger 12.9 8.0 72 30 24 16.1 99.92     LegendNANA
21:00 Legend Double Dagger 11.0 5.5 69 28 17 16.1 100.08     LegendNANA
22:00 Legend Double Dagger 9.6 4.5 70 27 9 16.1 100.17     LegendNANA
23:00 Legend Double Dagger 8.3 3.1 69 26 9 16.1 100.26     LegendNANA

Notes on Data Quality.

Legend

  • E = Estimated
  • M = Missing
  • NA = Not Available
  • ‡ = Partner data that is not subject to review by the National Climate Archives
Date modified: